Location: Proctor
(47.8934°N, 114.3048°W)
Time: 06:17:38
(UTC+00:00)

AO-73 - Pass Details

Date: 06 July 2022
Orbit: 579 x 657 km, 97.6° (Epoch: 09 August)

Event Time Altitude Azimuth Distance (km) Brightness Sun altitude
Rises 10:14:09 0° 33° (NNE) 2,980 ? -11.6°
Reaches altitude 10° 10:18:05 10° 68° (ENE) 2,071 ? -11.2°
Maximum altitude 10:19:29 11° 86° (E) 1,986 ? -11.1°
Drops below altitude 10° 10:20:54 10° 104° (ESE) 2,070 ? -11.0°
Sets 10:24:49 0° 139° (SE) 2,976 ? -10.6°
